www.pogodaiklimat.ru

Погода и климат >> Архив погоды >> Япония >> Чичибу


ПОГОДА в Чичибу

  • Прогноз погоды в Чичибу
  • Монитор погоды в Чичибу

АРХИВ ПОГОДЫ в Чичибу

Время (UTC), дата Ветер
(напр.,м/с)
 
Видим.   Явления Облачность Т
(С)
Тd
(С)
f
(%)
Тe
(С)
Тes
(С)
Комфортность P
(гПа)
Po
(гПа)
Тmin
(С)
Tmax
(С)
R
(мм)
R24
(мм)
S
(см)
22 11.06 З 1 20 км н/о +15.1 +13.0 87 +16 +16 1008.9 981.6
23 11.06 В 1 20 км н/о +16.4 +11.8 74 +17 +17 1008.9 981.7
00 12.06 З 1 12 км слаб. дождь н/о +18.1 +13.0 72 +19 +19 1008.6 981.6 +13.5 4
01 12.06 СВ 2 20 км в посл. час дождь н/о +18.5 +12.3 67 +20 +20 1008.4 981.4
02 12.06 ЮЗ 2 н/о н/о +20.1 +13.6 66 +23 +23 комфорт 1008.0 981.2
03 12.06 С 2 20 км {дождь} н/о +20.4 +12.4 60 +23 +23 комфорт 1007.7 980.9
04 12.06 В 2 20 км слаб. дождь н/о +20.9 +14.3 66 +25 +25 комфорт 1007.1 980.4
05 12.06 СВ 2 20 км в посл. час дождь н/о +21.0 +13.2 61 +24 +24 комфорт 1006.9 980.2
06 12.06 С 2 20 км слаб. дождь н/о +20.9 +13.4 62 +24 +24 комфорт 1006.9 980.2
07 12.06 ЮВ 2 20 км в посл. час дождь н/о +19.7 +15.6 77 +22 +22 комфорт 1007.2 980.4
08 12.06 З 1 20 км слаб. дождь н/о +19.4 +15.3 77 +22 +22 комфорт 1007.7 980.8
09 12.06 СВ 1 20 км в посл. час дождь н/о +19.4 +14.5 73 +22 +22 комфорт 1008.2 981.3
10 12.06 ЮЗ 2 20 км н/о +18.5 +16.5 88 +20 +20 1008.9 981.9
11 12.06 З 1 20 км н/о +17.3 +15.3 88 +18 +18 1009.7 982.6
12 12.06 ЮЗ 2 20 км {дождь} н/о +16.4 +15.3 93 +17 +17 1010.7 983.4 +22.2 0.0
13 12.06 ЮЗ 2 20 км н/о +15.9 +14.8 93 +16 +16 1010.8 983.5
14 12.06 ЮЗ 1 20 км н/о +15.3 +14.8 97 +16 +16 1011.2 983.8
15 12.06 ЮЗ 1 20 км н/о +15.2 +14.4 95 +16 +16 1011.3 983.9
16 12.06 Ю 1 20 км н/о +15.2 +14.3 94 +16 +16 1011.5 984.1
17 12.06 ЮЗ 1 20 км н/о +15.0 +14.1 94 +16 +16 1011.4 984.0
18 12.06 ЮЗ 1 19 км н/о +14.7 +14.6 99 +16 +16 1011.7 984.2
19 12.06 ЮЗ 1 20 км н/о +14.2 +13.7 97 +14 +14 1012.0 984.5
20 12.06 ЮЗ 1 20 км н/о +13.4 +12.9 97 +13 +13 1012.7 985.1
21 12.06 ЮЗ 2 20 км н/о +14.8 +12.5 86 +14 +14 1012.9 985.4
22 12.06 Ю 2 20 км н/о +17.2 +12.7 75 +18 +18 1012.8 985.6
23 12.06 С 1 20 км н/о +19.6 +13.8 69 +22 +22 комфорт 1012.3 985.3
00 13.06 С 1 20 км н/о +21.8 +13.7 60 +25 +25 комфорт 1012.0 985.3 +13.3
01 13.06 С 2 20 км н/о +23.9 +12.9 50 +26 +26 жарко 1011.6 985.1
02 13.06 С 3 20 км н/о +24.8 +14.6 53 +27 +27 жарко 1011.2 984.8
03 13.06 СВ 2 20 км н/о +25.5 +14.9 52 +28 +28 жарко 1010.7 984.4
04 13.06 ЮВ 4 20 км н/о +26.3 +14.4 48 +29 +29 жарко 1010.0 983.8
05 13.06 В 3 20 км н/о +27.1 +14.8 47 +30 +30 душно 1009.6 983.4
07 13.06 В 5 20 км н/о +26.2 +15.9 53 +29 +29 жарко 1009.6 983.4
08 13.06 В 4 20 км н/о +25.4 +16.0 56 +29 +29 душно 1009.9 983.6
09 13.06 В 4 20 км н/о +24.1 +16.1 61 +27 +27 жарко 1010.2 983.7
10 13.06 В 3 20 км н/о +22.4 +16.7 70 +27 +27 душно 1011.1 984.5
11 13.06 ЮВ 2 20 км н/о +21.1 +16.9 77 +25 +25 комфорт 1012.2 985.4
12 13.06 ЮЗ 2 20 км н/о +20.0 +16.8 82 +24 +24 комфорт 1013.0 986.1 +27.7
13 13.06 Ю 1 20 км н/о +19.1 +16.5 85 +22 +22 комфорт 1013.7 986.6
14 13.06 ЮЗ 1 18 км н/о +18.0 +16.3 90 +20 +20 1014.2 987.0
15 13.06 ЮЗ 1 14 км н/о +17.3 +16.3 94 +19 +19 1014.4 987.1
16 13.06 ЮЗ 2 14 км н/о +17.0 +16.0 94 +18 +18 1014.7 987.4
17 13.06 ЮЗ 1 18 км н/о +17.5 +16.2 92 +19 +19 1014.8 987.5
18 13.06 ЮЗ 1 19 км н/о +17.6 +16.3 92 +19 +19 1014.5 987.3
19 13.06 З 1 15 км н/о +17.4 +16.6 95 +19 +19 1014.6 987.3
20 13.06 Ю 1 18 км н/о +17.5 +16.0 91 +19 +19 1014.9 987.6
21 13.06 Ю 1 20 км н/о +18.1 +16.1 88 +20 +20 1014.4 987.2
22 13.06 СВ 1 20 км н/о +19.7 +16.2 80 +23 +23 комфорт 1014.0 987.0
23 13.06 СВ 3 20 км н/о +22.1 +16.6 71 +26 +26 душно 1013.5 986.8
00 14.06 В 2 20 км н/о +23.9 +16.7 64 +27 +27 жарко 1012.9 986.4 +16.9
01 14.06 СВ 3 20 км н/о +24.5 +16.5 61 +28 +28 душно 1012.6 986.1
02 14.06 В 5 20 км н/о +25.6 +15.9 55 +29 +29 душно 1012.2 985.8
03 14.06 В 5 20 км н/о +26.7 +15.1 49 +29 +29 жарко 1011.0 984.8
04 14.06 В 4 20 км н/о +27.7 +15.4 47 +31 +31 душно 1010.2 984.1
05 14.06 В 5 20 км н/о +26.8 +14.2 46 +29 +29 жарко 1009.7 983.5
06 14.06 В 5 20 км н/о +25.9 +14.7 50 +28 +28 жарко 1009.8 983.5
07 14.06 В 5 20 км н/о +23.8 +14.8 57 +27 +27 жарко 1009.7 983.2
08 14.06 В 6 20 км н/о +22.7 +14.8 61 +26 +26 жарко 1009.5 982.9
09 14.06 В 5 20 км н/о +21.6 +15.0 66 +25 +25 комфорт 1009.8 983.1
10 14.06 В 5 20 км н/о +20.8 +14.9 69 +24 +24 комфорт 1010.6 983.8
11 14.06 В 4 20 км н/о +20.2 +14.3 69 +23 +23 комфорт 1011.0 984.1
12 14.06 ЮВ 4 20 км н/о +20.4 +14.1 67 +23 +23 комфорт 1011.2 984.3 +28.3
13 14.06 ЮВ 3 20 км н/о +19.9 +14.5 71 +22 +22 комфорт 1011.0 984.1
14 14.06 ЮВ 2 20 км слаб. дождь н/о +19.2 +15.1 77 +21 +21 комфорт 1010.7 983.7
15 14.06 Ю 2 20 км слаб. дождь н/о +18.6 +15.7 83 +20 +20 1010.1 983.1
16 14.06 ЮВ 2 15 км слаб. дождь н/о +18.0 +15.8 87 +19 +19 1010.1 983.0
17 14.06 В 4 18 км слаб. дождь н/о +17.4 +14.9 85 +17 +17 1009.5 982.4
18 14.06 В 2 18 км слаб. дождь н/о +16.4 +14.1 86 +16 +16 1009.2 982.0 2
19 14.06 В 2 15 км слаб. дождь н/о +15.7 +14.1 90 +16 +16 1009.2 981.9
20 14.06 С 1 6000 м слаб. дождь н/о +14.9 +13.8 93 +16 +16 1009.3 981.9
21 14.06 штиль 0 3800 м дождь н/о +14.2 +13.7 97 +14 +14 1009.6 982.1
22 14.06 З 1 1800 м дождь н/о +14.2 +14.1 99 +15 +15 1009.9 982.4
23 14.06 СЗ 2 3400 м слаб. дождь н/о +15.0 +14.7 98 +15 +15 1008.3 981.0
00 15.06 С 2 3600 м слаб. дождь н/о +15.1 +15.0 99 +15 +15 1007.3 980.0 +14.1 18
01 15.06 С 2 3200 м слаб. дождь н/о +15.1 +14.6 97 +15 +15 1006.5 979.2
02 15.06 СЗ 2 3300 м слаб. дождь н/о +15.7 +15.2 97 +16 +16 1005.3 978.1
03 15.06 С 2 2500 м слаб. дождь н/о +15.5 +15.4 99 +16 +16 1004.0 976.8
04 15.06 С 2 4100 м слаб. дождь н/о +15.6 +15.5 99 +15 +15 1002.8 975.7
05 15.06 СЗ 2 13 км слаб. дождь н/о +15.7 +15.6 99 +16 +16 1001.3 974.2
06 15.06 ЮЗ 1 2900 м слаб. дождь н/о +15.9 +15.6 98 +17 +17 1000.0 973.0 12
07 15.06 З 1 1800 м слаб. дождь н/о +15.8 +15.5 98 +16 +16 998.6 971.6
08 15.06 ЮЗ 2 2900 м слаб. дождь н/о +15.9 +15.8 99 +16 +16 996.8 969.9
09 15.06 ЮЗ 1 13 км слаб. дождь н/о +15.7 +15.6 99 +16 +16 996.6 969.7
10 15.06 ЮВ 1 3700 м слаб. дождь н/о +15.7 +15.4 98 +17 +17 995.5 968.6
11 15.06 ЮВ 1 5000 м слаб. дождь н/о +15.4 +15.3 99 +16 +16 994.3 967.4
12 15.06 ЮВ 1 5000 м слаб. дождь н/о +15.4 +15.4 100 +16 +16 993.8 966.9 +16.2 17
13 15.06 З 1 17 км в посл. час дождь н/о +15.4 +15.4 100 +17 +17 992.7 965.8
14 15.06 З 1 5000 м слаб. дождь н/о +15.4 +15.4 100 +17 +17 991.5 964.7
15 15.06 ЮЗ 2 1800 м слаб. дождь н/о +15.2 +15.2 100 +15 +15 991.2 964.3
16 15.06 ЮВ 1 4200 м дождь н/о +15.3 +15.3 100 +16 +16 989.7 962.9
17 15.06 штиль 0 8000 м слаб. дождь н/о +15.4 +15.4 100 +15 +15 988.9 962.1
18 15.06 Ю 1 20 км в посл. час дождь н/о +15.4 +15.4 100 +17 +17 988.0 961.3 8
19 15.06 ЮЗ 2 1500 м слаб. дождь н/о +15.5 +15.5 100 +16 +16 988.0 961.3
20 15.06 Ю 1 20 км в посл. час дождь н/о +15.8 +15.8 100 +16 +16 987.9 961.2
21 15.06 ЮЗ 1 17 км слаб. дождь н/о +15.9 +15.9 100 +17 +17 988.1 961.4
22 15.06 СВ 1 20 км в посл. час дождь н/о +17.0 +16.2 95 +18 +18 988.3 961.7
23 15.06 З 2 20 км н/о +19.1 +16.9 87 +21 +21 комфорт 988.3 961.9
00 16.06 З 1 20 км {дождь} н/о +21.9 +18.3 80 +27 +27 душно 987.8 961.7 +15.2 9
01 16.06 СЗ 2 20 км н/о +24.3 +17.1 64 +28 +28 душно 988.1 962.2
02 16.06 СВ 3 20 км н/о +27.9 +17.2 52 +32 +32 душно 987.9 962.4
03 16.06 З 6 20 км н/о +29.8 +10.9 31 +30 +30 жарко 988.1 962.7
04 16.06 СЗ 6 20 км н/о +29.5 +11.1 32 +30 +30 жарко 988.6 963.2
05 16.06 З 7 20 км н/о +29.7 +9.3 28 +29 +29 жарко 989.3 963.9
06 16.06 З 6 20 км н/о +29.6 +9.7 29 +29 +29 жарко 990.2 964.8
07 16.06 З 4 20 км н/о +29.1 +8.8 28 +29 +29 жарко 990.7 965.2
08 16.06 СЗ 4 20 км н/о +27.2 +9.1 32 +27 +27 жарко 992.0 966.3
09 16.06 СЗ 6 20 км н/о +25.9 +8.9 34 +26 +26 жарко 993.7 967.8
10 16.06 СЗ 5 20 км н/о +24.3 +8.7 37 +25 +25 комфорт 995.3 969.3
11 16.06 СЗ 2 20 км н/о +22.3 +9.8 45 +24 +24 комфорт 997.0 970.7
12 16.06 З 2 20 км н/о +19.3 +12.1 63 +21 +21 комфорт 998.8 972.2 +30.5
13 16.06 ЮЗ 3 20 км н/о +18.1 +12.1 68 +19 +19 999.9 973.1
14 16.06 ЮЗ 2 20 км н/о +17.5 +11.8 69 +18 +18 1001.1 974.2
15 16.06 ЮЗ 3 20 км н/о +16.6 +11.5 72 +16 +16 1001.6 974.6
16 16.06 ЮЗ 2 20 км н/о +15.7 +11.5 76 +16 +16 1002.2 975.1
17 16.06 З 3 20 км н/о +17.7 +10.1 61 +18 +18 1002.7 975.8
18 16.06 З 3 20 км н/о +18.2 +9.6 57 +19 +19 1003.7 976.8
19 16.06 Ю 2 20 км н/о +18.7 +8.9 53 +20 +20 1005.1 978.2
20 16.06 З 2 20 км н/о +19.7 +8.7 49 +21 +21 комфорт 1006.0 979.2
21 16.06 СЗ 1 20 км н/о +18.1 +10.2 60 +19 +19 1007.2 980.2
22 16.06 СЗ 3 20 км н/о +20.1 +9.4 50 +22 +22 комфорт 1008.4 981.6
23 16.06 СЗ 4 20 км н/о +21.7 +9.3 45 +23 +23 комфорт 1009.1 982.4
00 17.06 СЗ 3 20 км н/о +22.1 +9.3 44 +24 +24 комфорт 1009.4 982.8 +15.2
01 17.06 С 4 20 км н/о +23.4 +9.1 40 +25 +25 комфорт 1009.1 982.6
02 17.06 СЗ 5 20 км н/о +24.6 +9.0 37 +25 +25 комфорт 1008.8 982.4
03 17.06 С 3 20 км н/о +25.5 +10.2 38 +26 +26 жарко 1008.4 982.1
04 17.06 СВ 5 20 км н/о +27.0 +11.1 37 +28 +28 жарко 1007.7 981.6
05 17.06 СВ 5 20 км н/о +26.0 +11.4 40 +27 +27 жарко 1008.2 982.0
06 17.06 С 3 20 км н/о +25.8 +10.8 39 +27 +27 жарко 1008.7 982.4
07 17.06 СВ 3 20 км н/о +25.0 +10.1 39 +26 +26 жарко 1008.6 982.3
08 17.06 С 3 20 км н/о +24.2 +10.1 41 +25 +25 комфорт 1009.0 982.6
09 17.06 С 2 20 км н/о +23.4 +10.1 43 +25 +25 комфорт 1009.8 983.3
10 17.06 СВ 2 20 км н/о +22.7 +10.2 45 +25 +25 комфорт 1010.7 984.1
11 17.06 В 2 20 км н/о +21.2 +11.3 53 +23 +23 комфорт 1011.9 985.1
12 17.06 Ю 1 20 км н/о +19.1 +12.6 66 +21 +21 комфорт 1012.8 985.8 +27.5
13 17.06 З 1 20 км н/о +18.3 +12.1 67 +20 +20 1013.3 986.2
14 17.06 СЗ 1 20 км н/о +17.5 +12.6 73 +19 +19 1013.5 986.3
15 17.06 З 2 20 км н/о +16.0 +12.9 82 +16 +16 1014.2 986.8
16 17.06 ЮЗ 1 20 км н/о +14.9 +12.9 88 +15 +15 1014.4 986.9
18 17.06 З 1 20 км н/о +14.0 +12.7 92 +15 +15 1014.6 987.0
19 17.06 ЮЗ 1 20 км н/о +13.8 +12.9 94 +15 +15 1015.0 987.4
20 17.06 З 1 20 км н/о +13.4 +12.5 94 +14 +14 1015.3 987.6
21 17.06 З 1 20 км н/о +14.1 +12.5 90 +15 +15 1015.1 987.5
22 17.06 СЗ 1 20 км н/о +16.7 +12.5 76 +18 +18 1014.6 987.3
23 17.06 С 1 20 км н/о +18.5 +12.5 68 +20 +20 1014.0 986.9
00 18.06 С 2 20 км н/о +21.5 +13.7 61 +24 +24 комфорт 1013.1 986.3 +13.4
01 18.06 СВ 2 20 км н/о +22.7 +14.8 61 +26 +26 жарко 1012.5 985.8
02 18.06 С 3 20 км н/о +23.8 +15.1 58 +27 +27 жарко 1011.7 985.2
03 18.06 С 3 20 км н/о +25.5 +15.2 53 +28 +28 жарко 1010.3 984.0
04 18.06 СВ 3 20 км н/о +25.0 +15.1 54 +28 +28 жарко 1010.0 983.6
05 18.06 В 3 20 км н/о +26.9 +14.7 47 +29 +29 жарко 1009.1 982.9
06 18.06 ЮВ 4 20 км н/о +26.4 +13.5 45 +28 +28 жарко 1008.6 982.4
07 18.06 ЮВ 3 20 км н/о +26.4 +13.9 46 +29 +29 жарко 1008.3 982.1
08 18.06 ЮВ 3 20 км н/о +25.8 +15.5 53 +29 +29 душно 1008.0 981.8
09 18.06 В 3 20 км н/о +24.3 +16.3 61 +28 +28 душно 1008.1 981.7
10 18.06 В 3 20 км н/о +22.9 +16.0 65 +27 +27 душно 1008.5 982.0
11 18.06 Ю 2 20 км н/о +21.4 +16.6 74 +25 +25 комфорт 1009.1 982.4
12 18.06 Ю 2 20 км н/о +20.3 +16.4 78 +24 +24 комфорт 1009.7 982.9 +27.2
13 18.06 Ю 1 20 км н/о +19.2 +16.3 83 +22 +22 комфорт 1010.7 983.7
14 18.06 Ю 1 20 км н/о +18.4 +15.8 85 +20 +20 1010.8 983.7
15 18.06 ЮЗ 2 20 км н/о +18.0 +15.6 86 +19 +19 1010.6 983.5
16 18.06 ЮЗ 1 20 км н/о +18.0 +15.3 84 +20 +20 1010.1 983.0
17 18.06 ЮЗ 2 20 км н/о +18.1 +15.2 83 +19 +19 1010.0 982.9
18 18.06 ЮЗ 1 20 км н/о +18.0 +15.1 83 +19 +19 1009.9 982.8
19 18.06 З 1 20 км н/о +17.6 +15.1 85 +19 +19 1009.9 982.8
20 18.06 ЮЗ 1 20 км н/о +17.8 +15.8 88 +19 +19 1009.8 982.7
21 18.06 З 1 20 км н/о +18.8 +15.5 81 +21 +21 комфорт 1009.3 982.3
22 18.06 С 1 20 км н/о +20.5 +15.9 75 +25 +25 комфорт 1008.8 982.0
23 18.06 С 1 20 км н/о +21.8 +16.3 71 +26 +26 душно 1008.6 982.0

 

Местоположение метеостанции Чичибу (Япония): широта 35.98 долгота 139.06 высота над уровнем моря 234 м.

В архиве по умолчанию представлена погода в Чичибу за последнюю неделю. Архивные данные за месяц целиком и за предыдущие месяцы, начиная с января 2011 года, Вы можете получить, выбрав интересующий диапазон дат из раскрывающегося списка и нажав кнопку "Ввод!".


*Определитесь, кто Вы:
робот инопланетянин человек

Внимание! Время в таблицах - всемирное. Для получения местного времени необходимо прибавить поправку, которая равна 9 ч.

Смотрите также архив погоды в соседних городах и на ближайших метеорологических станциях:

Погода в Кумугае (Япония) (34 км)
Погода в Маебаши (Япония) (47 км)
Погода в Кофу (Япония) (57 км)
Погода на Озере Кавагучи (Япония) (60 км)
Погода в Каруидзаве (Япония) (62 км)
Погода в Токио (Япония) (71 км)
Погода на Фудзияме (Япония) (74 км)
Погода в Иокогаме (Япония) (81 км)
Погода в Суве (Япония) (86 км)
Погода в Никко (Япония) (92 км)

Пояснения к столбцам:

Ветер - указаны скорость ветра в м/с - средняя за 10 мин, порывы в срок и между сроками (в фигурных скобках) и направление, откуда дует ветер: С - северный, СВ - северо-восточный, В - восточный, ЮВ - юго-восточный, Ю - южный, ЮЗ - юго-западный, З - западный, СЗ - северо-западный.
Видимость - горизонтальная дальность видимости в метрах или километрах. При видимости от 1 до 10 км при отсутствии осадков обычно наблюдается дымка, при ухудшении видимости до 1 км и менее - туман. В сухую погоду видимость может ухудшаться дымом, пылью или мглою.
Явления - указаны атмосферные явления, наблюдавшиеся в срок или в последний час перед сроком; фигурными скобками обозначены явления, наблюдавшиеся между сроками (за 1-3 часа до срока); квадратными скобками обозначены град или гололедные отложения с указанием их диаметра в мм.
Облачность - указаны через наклонную черту общая и нижняя облачность в баллах и высота нижней границы облаков в метрах; квадратными скобками обозначены формы облаков: Ci - перистые, Cs - перисто-слоистые, Cc - перисто-кучевые, Ac - высококучевые, As - высокослоистые, Sc - слоисто-кучевые, Ns - слоисто-дождевые, Cu - кучевые, Cb - кучево-дождевые. Подробнее классификацию облаков см. в Атласе облаков (PDF).
T - Температура воздуха - температура, измеренная на высоте 2 м над землей.
Td - Температура точки росы - температура, при понижении до которой содержащийся в воздухе водяной пар достигнет насыщения.
f - Относительная влажность воздуха - влажноcть воздуха, измеренная на высоте 2 м над землей.
Te - Эффективная температура - температура, которую ощущает одетый по сезону человек в тени. Характеристика душности погоды. При расчете учитывается влияние влажности воздуха и скорости ветра на теплоощущения человека.
Tes - Эффективная температура на солнце - температура, которую ощущает человек, с поправкой на солнечный нагрев. Характеристика знойности погоды. Зависит от высоты солнца над горизонтом, облачности и скорости ветра. Ночью, в пасмурную погоду, а также при ветре 12 м/с и более поправка равна нулю.
P - Атмосферное давление - приведенное к уровню моря атмосферное давление.
Po - Атмосферное давление - измеренное на уровне метеостанции атмосферное давление.
Tmin - Минимальная температура - минимум температуры воздуха на высоте 2 м над землей.
Tmax - Максимальная температура - максимум температуры воздуха на высоте 2 м над землей.
R - Количество осадков - Количество выпавших осадков за период времени, мм. При наведении курсора мыши на число - период времени, за который выпало указанное количество осадков.
R24 - Количество осадков - Количество выпавших осадков за 24 часа, мм.
S - Снежный покров - Высота снежного покрова, см. При наведении курсора мыши на число - состояние снежного покрова и степень покрытия местности в баллах.